Location: Gälforsberget
(66.6500°N, 22.4167°E)
Time: 08:07:59
(UTC+00:00)

Cosmos 2322 - Pass Details

Date: 11 April 2026
Orbit: 839 x 854 km, 71.0° (Epoch: 9 May)

Event Time Altitude Azimuth Distance (km) Brightness Sun altitude
Rises 20:49:13 0° 222° (SW) 3,419 6.6 -12.5°
Reaches altitude 10° 20:51:40 10° 220° (SW) 2,487 5.9 -12.6°
Maximum altitude 20:57:22 75° 137° (SE) 893 3.7 -12.9°
Drops below altitude 10° 21:03:06 10° 53° (NE) 2,499 6.3 -13.1°
Sets 21:05:34 0° 52° (NE) 3,437 7.1 -13.2°
